Regional Weather Roundup
Issued by NWS

Home | Current Version | Previous Version | Text Only | Print | Product List | Glossary Off
Versions: 1 2 3 4 5 6 7 8 9 10 11 12 13 14 15 16 17 18 19 20 21 22 23 24 25 26 27

000
ASUS45 KPSR 221010
RWRAZ

ARIZONA HOURLY REGIONAL WEATHER ROUNDUP
NATIONAL WEATHER SERVICE PHOENIX AZ
300 AM MST WED FEB 22 2017

NOTE: FAIR INDICATES FEW OR NO CLOUDS BELOW 12,000 FEET WITH NO
SIGNIFICANT WEATHER AND/OR OBSTRUCTIONS TO VISIBILITY.

AZZ001>003-036-221100-
NORTHWEST ARIZONA

CITY           SKY/WX    TMP DP  RH WIND       PRES   REMARKS
BULLHEAD CITY  CLOUDY    55  54  94 CALM      30.06F
KINGMAN        CLOUDY    53  37  54 S8        30.09F
$$

AZZ004>008-015-016-018-221100-
NORTH CENTRAL ARIZONA

CITY           SKY/WX    TMP DP  RH WIND       PRES   REMARKS
WILLIAMS       PTCLDY    43  39  87 SW15G22   30.18F
PRESCOTT       MOCLDY    48  42  80 VRB3      30.17F
FLAGSTAFF      CLOUDY    40  40 100 SW5       30.21F
PAYSON         CLEAR     45  41  87 CALM      30.22F
PAGE           MOCLDY    48  32  53 CALM      30.05F
$$

AZZ009>014-017-221100-
NORTHEAST ARIZONA

CITY           SKY/WX    TMP DP  RH WIND       PRES   REMARKS
WINSLOW        CLEAR     41  38  89 SE5       30.15F
SAINT JOHNS    CLEAR     38  34  85 CALM      30.18F
WINDOW ROCK    PTCLDY    41  36  82 S3        30.18F
SHOW LOW       CLEAR     39  36  87 S10       30.22F WCI  32
$$

AZZ023-221100-
GREATER PHOENIX AREA

CITY           SKY/WX    TMP DP  RH WIND       PRES   REMARKS
PHOENIX        PTCLDY    57  53  86 E7        30.06F
BUCKEYE        CLEAR     54  54 100 NW5       30.07F
LUKE AFB       CLEAR     55  55 100 N3        30.06F
DEER VALLEY    CLEAR     57  52  83 CALM      30.07F
SCOTTSDALE     CLEAR     55  51  86 CALM      30.11F
MESA-GATEWAY   CLEAR     54  50  87 SE6       30.09F
$$

AZZ027-028-221100-
SOUTHWEST MARICOPA COUNTY AND PINAL COUNTY

CITY           SKY/WX    TMP DP  RH WIND       PRES   REMARKS
CASA GRANDE    NOT AVBL
GILA BEND      FAIR      56  52  86 CALM      30.05F
$$

AZZ503-504-507>509-221100-
SOUTHEAST ARIZONA

CITY           SKY/WX    TMP DP  RH WIND       PRES   REMARKS
TUCSON         CLEAR     51  45  79 SE9       30.14F
DAVIS-MONTHAN  CLEAR     51  45  81 SE10      30.13F
NOGALES        CLEAR     43  36  76 CALM      30.16F
SIERRA VISTA   CLEAR     48  40  71 S6        30.20F
DOUGLAS        CLEAR     44  36  73 NW5       30.18F
SAFFORD        CLEAR     46  39  76 SE5       30.13F
$$

AZZ020-021-025-026-031-221100-
SOUTHWEST ARIZONA

CITY           SKY/WX    TMP DP  RH WIND       PRES   REMARKS
YUMA           CLEAR     59  54  83 S5        30.05F
$$

CAZ031-033-041-043-047-048-061-221100-
SOUTHERN CALIFORNIA

CITY           SKY/WX    TMP DP  RH WIND       PRES   REMARKS
DOWNTOWN L.A.  CLOUDY    57  55  93 CALM      30.17F
L.A. AIRPORT   MOCLDY    56  55  97 W9        30.18F
SAN DIEGO      CLOUDY    59  54  83 CALM      30.19F
BURBANK        MOCLDY    52  49  89 NW5       30.17F
ONTARIO        MOCLDY    53  50  89 NW3       30.16F
RIVERSIDE      PTCLDY    54  50  86 NE3       30.17F
PALM SPRINGS   MOCLDY    59  51  75 N7        30.06F
EL CENTRO NAS  PTCLDY    54  45  71 CALM      30.06F
IMPERIAL       PTCLDY    57  50  77 NW5       30.04F
BLYTHE         MOCLDY    61  52  72 SW5       30.04F
NEEDLES        MOCLDY    58  53  84 CALM      30.05F
$$

NVZ020-UTZ003-221100-
SOUTHERN NEVADA-UTAH

CITY           SKY/WX    TMP DP  RH WIND       PRES   REMARKS
LAS VEGAS      MOCLDY    58  37  45 S12G26    29.98F
SALT LAKE CITY LGT RAIN  36  34  92 S6        30.05F WCI  31
$$

NMZ009-TXZ055-221100-
NEW MEXICO-WEST TEXAS

CITY           SKY/WX    TMP DP  RH WIND       PRES   REMARKS
ALBUQUERQUE    CLEAR     46  33  60 S7        30.15F
EL PASO        CLEAR     56  31  38 W9        30.12F
$$


........................KEY........................
SKY/WX - SKY CONDITION/WEATHER
TMP    - TEMPERATURE IN FAHRENHEIT
DP     - DEW POINT IN FAHRENHEIT
RH     - RELATIVE HUMIDITY IN PERCENT
WIND   - DIRECTION AND SPEED IN MILES PER HOUR (MPH)
VRB    - VARIABLE WIND DIRECTION
PRES   - MEAN SEA LEVEL PRESSURE IN INCHES OF MERCURY
         F - FALLING PRESSURE   R - RISING PRESSURE
         S - STEADY PRESSURE
VSB    - VISIBILITY IN MILES
HX     - HEAT INDEX IN FAHRENHEIT
WCI    - WIND CHILL INDEX IN FAHRENHEIT
TC     - TEMPERATURE IN CELSIUS WHICH IS ALSO KNOWN AS
         TEMPERATURE IN CENTIGRADE
AFB    - AIR FORCE BASE
         LUKE AFB IS LUKE AIR FORCE BASE
         DAVIS-MONTHAN IS DAVIS-MONTHAN AIR FORCE BASE
NAS    - NAVAL AIR STATION
         EL CENTRO NAS IS EL CENTRO NAVAL AIR STATION
N/A    - NOT AVAILABLE





USA.gov is the U.S. government's official web portal to all federal, state and local government web resources and services.